Latest Weather Observations for Canberra

IDN60801

Issued at 9:32 pm EST Monday 25 May 2015 (issued every 30 minutes, with the page automatically refreshed every 10 minutes)

About weather observations | Map of weather stations | Latest weather observations for NSW | Other Formats
Station Details ID: 070351 Name: CANBERRA AIRPORT Lat: -35.31 Lon: 149.20 Height: 577.05 m
Data from the previous 72 hours. | See also: Recent months at Canberra
Date/Time
EST
Temp
°C
App
Temp
°C
Dew
Point
Rel
Hum
%
Delta-T
°C
Wind Press
QNH
hPa
Press
MSL
hPa
Rain
since 9 am
mm
Dir
 
Spd
km/h
Gust
km/h
Spd
kts
Gust
kts
25/09:30pm 2.2 -0.4 1.2 93 0.4 ESE 4 7 2 4 1030.7 - 0.0
25/09:00pm 2.2 0.4 0.9 91 0.5 CALM 0 0 0 0 1030.7 1031.2 0.0
25/08:30pm 1.9 -1.4 0.3 89 0.6 N 7 9 4 5 1030.5 - 0.0
25/08:00pm 2.7 -0.9 0.6 86 0.8 ESE 9 9 5 5 1030.4 - 0.0
25/07:30pm 2.3 -0.9 0.5 88 0.7 S 7 7 4 4 1030.3 - 0.0
25/07:00pm 2.6 0.6 0.2 84 0.9 CALM 0 2 0 1 1029.9 - 0.0
25/06:30pm 4.5 1.4 1.4 80 1.3 ENE 7 9 4 5 1029.6 - 0.0
25/06:00pm 5.9 3.0 2.4 78 1.5 E 7 7 4 4 1029.3 1029.8 0.0
25/05:30pm 5.9 2.7 0.9 70 2.0 N 7 9 4 5 1029.0 - 0.0
25/05:00pm 10.6 7.9 2.7 58 3.5 S 6 7 3 4 1028.9 - 0.0
25/04:30pm 12.8 10.3 3.5 53 4.3 SSW 6 7 3 4 1029.0 - 0.0
25/04:00pm 13.8 12.0 3.6 50 4.8 WSW 2 7 1 4 1029.0 - 0.0
25/03:30pm 14.0 11.3 3.5 49 4.9 WNW 7 11 4 6 1029.3 - 0.0
25/03:00pm 13.5 11.7 3.6 51 4.6 NW 2 7 1 4 1029.3 1029.8 0.0
25/02:30pm 12.6 10.0 3.3 53 4.3 SW 6 9 3 5 1029.3 - 0.0
25/02:00pm 12.2 9.4 3.2 54 4.1 SSW 7 11 4 6 1029.4 - 0.0
25/01:30pm 11.9 9.0 2.6 53 4.2 WSW 7 11 4 6 1029.5 - 0.0
25/01:00pm 11.6 8.9 2.9 55 3.9 W 6 9 3 5 1029.8 - 0.0
25/12:30pm 10.1 7.3 2.2 58 3.5 N 6 11 3 6 1030.3 - 0.0
25/12:00pm 9.7 7.4 2.6 61 3.1 NW 4 7 2 4 1031.0 1031.5 0.0
25/11:30am 9.1 6.7 2.4 63 2.9 N 4 9 2 5 1031.2 - 0.0
25/10:30am 6.0 3.0 1.9 75 1.7 WSW 7 11 4 6 1032.3 - 0.0
25/10:00am 4.9 2.8 1.4 78 1.4 N 2 6 1 3 1032.0 - 0.0
25/09:30am 4.1 2.3 1.3 82 1.1 CALM 0 0 0 0 1032.3 - 0.0
25/09:00am 3.3 1.5 1.0 85 0.9 CALM 0 0 0 0 1032.7 1033.2 -
25/08:30am 2.2 0.3 0.6 89 0.6 CALM 0 6 0 3 1032.5 - 0.0
25/08:00am 0.7 -2.1 -0.2 94 0.3 W 4 7 2 4 1032.4 - 0.0
25/07:30am 0.4 -2.8 -0.7 92 0.4 N 6 7 3 4 1031.8 - 0.0
25/07:00am 0.1 -2.8 -1.0 92 0.4 N 4 9 2 5 1032.4 - 0.0
25/06:30am -0.3 -2.5 -1.7 90 0.5 CALM 0 0 0 0 1032.0 - 0.0
25/05:30am -0.1 -2.3 -1.2 92 0.4 CALM 0 0 0 0 1031.8 - 0.0
25/05:00am -0.1 -2.3 -1.2 92 0.4 CALM 0 6 0 3 1031.4 - -
25/04:30am 0.0 -3.4 -0.8 94 0.3 N 7 7 4 4 1031.4 - 0.0
25/04:00am -0.9 -3.6 -2.5 89 0.5 N 2 9 1 5 1031.4 - 0.0
25/03:30am -0.4 -2.6 -1.4 93 0.3 CALM 0 0 0 0 1031.5 - 0.0
25/03:00am -0.4 -2.9 -1.2 94 0.3 NNE 2 6 1 3 1031.7 1032.3 0.0
25/02:30am -1.6 -4.0 -3.0 90 0.4 CALM 0 0 0 0 1031.9 - 0.0
25/02:00am -0.4 -2.9 -1.2 94 0.3 NE 2 7 1 4 1032.0 - 0.0
25/01:30am -0.5 -4.0 -1.6 92 0.4 N 7 9 4 5 1032.4 - 0.0
25/01:00am -0.8 -3.1 -2.4 89 0.5 CALM 0 0 0 0 1032.3 - 0.0
25/12:30am -0.2 -2.4 -1.8 89 0.6 CALM 0 0 0 0 1032.3 - 0.0
25/12:00am 0.6 -2.4 -1.5 86 0.8 ENE 4 7 2 4 1032.3 1032.8 0.0
 
Date/Time
EST
Temp
°C
App
Temp
°C
Dew
Point
Rel
Hum
%
Delta-T
°C
Wind Press
QNH
hPa
Press
MSL
hPa
Rain
since 9 am
mm
Dir
 
Spd
km/h
Gust
km/h
Spd
kts
Gust
kts
24/11:30pm 1.0 -1.2 -1.2 85 0.8 CALM 0 6 0 3 1032.4 - 0.0
24/11:00pm 1.6 -1.7 -0.2 88 0.7 N 7 9 4 5 1032.6 - 0.0
24/10:30pm 1.4 -2.0 -1.8 79 1.2 SSE 6 7 3 4 1032.5 - 0.0
24/10:00pm 2.5 -1.2 -0.1 83 1.0 SE 9 11 5 6 1032.5 - 0.0
24/09:30pm 2.3 0.3 0.0 85 0.9 CALM 0 0 0 0 1032.3 - 0.0
24/09:00pm 3.0 -0.3 0.4 83 1.0 N 7 9 4 5 1032.2 1032.7 0.0
24/08:30pm 3.7 1.1 0.7 81 1.2 ESE 4 6 2 3 1032.3 - 0.0
24/08:00pm 3.9 2.1 0.9 81 1.2 CALM 0 0 0 0 1032.0 - 0.0
24/07:30pm 3.6 0.3 0.3 79 1.3 NNW 7 9 4 5 1031.7 - 0.0
24/07:00pm 3.8 1.8 -0.2 75 1.6 CALM 0 4 0 2 1031.5 - 0.0
24/06:30pm 4.1 1.0 0.3 76 1.5 SSE 6 7 3 4 1031.4 - 0.0
24/06:00pm 5.5 3.6 0.7 71 1.9 CALM 0 0 0 0 1031.3 1031.8 0.0
24/05:30pm 6.1 3.1 0.9 69 2.1 NE 6 7 3 4 1031.1 - 0.0
24/05:00pm 7.7 4.4 0.2 59 3.1 NNE 7 9 4 5 1030.8 - 0.0
24/04:30pm 10.8 6.5 0.8 50 4.3 NW 13 13 7 7 1030.7 - 0.0
24/04:00pm 13.8 9.8 0.5 40 5.8 NW 11 13 6 7 1030.5 - 0.0
24/03:30pm 15.0 10.5 -0.3 35 6.6 WNW 13 15 7 8 1030.4 - 0.0
24/03:00pm 15.6 11.6 0.2 35 6.7 WNW 11 15 6 8 1030.5 1031.0 0.0
24/02:30pm 15.7 12.1 0.7 36 6.7 NW 9 13 5 7 1030.3 - 0.0
24/02:00pm 14.9 11.2 0.0 36 6.5 NNW 9 11 5 6 1030.6 - 0.0
24/01:30pm 14.2 10.8 -0.6 36 6.3 NNW 7 11 4 6 1030.8 - 0.0
24/01:00pm 12.8 9.7 -0.1 41 5.5 WNW 6 11 3 6 1031.2 - 0.0
24/12:30pm 12.9 9.8 0.3 42 5.4 NW 6 9 3 5 1031.4 - 0.0
24/12:00pm 11.6 8.7 -0.9 42 5.1 WNW 4 7 2 4 1031.8 1032.4 0.0
24/11:30am 9.5 6.2 -1.2 47 4.3 NNW 6 7 3 4 1032.3 - 0.0
24/11:00am 7.7 4.5 -0.3 57 3.2 W 6 9 3 5 1032.6 - 0.0
24/10:30am 6.2 2.8 -0.5 62 2.7 NW 7 9 4 5 1032.7 - 0.0
24/10:00am 5.0 1.3 0.2 71 1.9 WNW 9 11 5 6 1032.7 - 0.0
24/09:30am 3.5 0.9 0.9 83 1.0 WNW 4 7 2 4 1032.7 - 0.0
24/09:00am 2.3 0.4 0.8 90 0.6 CALM 0 0 0 0 1032.9 1033.5 0.0
24/08:30am -0.9 -4.2 -1.6 95 0.2 NNW 6 7 3 4 1033.0 - 0.0
24/08:21am -1.9 -4.6 -2.5 96 0.1 WNW 2 7 1 4 1032.9 - 0.0
24/08:00am -2.8 -6.0 -3.3 96 0.0 W 4 7 2 4 1032.6 - 0.0
24/07:30am -4.4 -7.0 -4.8 97 -0.1 CALM 0 0 0 0 1032.3 - 0.0
24/07:19am -5.1 -7.8 -5.8 95 0.0 CALM 0 0 0 0 1032.3 - 0.0
24/07:10am -5.8 -8.6 -6.6 94 0.0 CALM 0 0 0 0 1032.2 - 0.0
24/07:00am -5.1 -8.1 -5.6 96 0.0 ENE 2 6 1 3 1032.0 - 0.0
24/06:49am -5.5 -9.0 -6.2 95 0.0 ENE 4 6 2 3 1031.9 - 0.0
24/06:30am -5.5 -9.9 -6.2 95 0.0 NNW 9 9 5 5 1031.7 - 0.0
24/06:23am -5.3 -9.7 -6.0 95 0.0 NNW 9 9 5 5 1031.6 - 0.0
24/06:17am -4.7 -8.5 -5.4 95 0.0 NNW 6 9 3 5 1031.5 - 0.0
24/06:00am -4.1 -7.4 -4.6 96 0.0 N 4 6 2 3 1031.2 1031.7 0.0
24/05:46am -3.6 -7.2 -4.0 97 0.0 NNE 6 7 3 4 1031.1 - 0.0
24/05:36am -4.6 -8.4 -5.1 96 0.0 N 6 7 3 4 1031.0 - 0.0
24/05:30am -4.7 -8.5 -5.2 96 0.0 N 6 7 3 4 1031.1 - 0.0
24/05:00am -4.2 -6.8 -4.6 97 0.0 CALM 0 0 0 0 1031.0 - 0.0
24/04:30am -4.9 -7.5 -5.4 96 0.0 CALM 0 0 0 0 1030.9 - 0.0
24/04:00am -4.0 -7.9 -4.4 97 0.0 NNW 7 9 4 5 1030.8 - 0.0
24/03:37am -3.7 -7.4 -4.1 97 0.0 NE 6 7 3 4 1030.6 - 0.0
24/03:30am -3.0 -6.6 -3.4 97 0.0 N 6 7 3 4 1030.5 - 0.0
24/03:29am -3.0 -6.6 -3.4 97 0.0 N 6 7 3 4 1030.5 - 0.0
24/03:00am -3.2 -5.7 -3.7 96 0.0 CALM 0 7 0 4 1030.6 1031.1 0.0
24/02:52am -3.3 -5.8 -4.0 95 0.1 CALM 0 0 0 0 1030.6 - 0.0
24/02:42am -2.3 -4.7 -2.8 96 0.1 CALM 0 0 0 0 1030.5 - 0.0
24/02:38am -3.4 -5.9 -4.2 94 0.1 CALM 0 0 0 0 1030.5 - 0.0
24/02:30am -3.0 -5.5 -3.8 94 0.1 CALM 0 0 0 0 1030.5 - 0.0
24/02:22am -2.2 -5.0 -2.9 95 0.1 NNE 2 7 1 4 1030.5 - 0.0
24/02:00am -1.8 -4.5 -2.4 96 0.1 NE 2 6 1 3 1030.5 - 0.0
24/01:30am -2.2 -4.6 -3.0 94 0.2 CALM 0 6 0 3 1030.5 - 0.0
24/01:26am -2.8 -5.3 -3.8 93 0.2 CALM 0 0 0 0 1030.5 - 0.0
24/01:07am -2.5 -4.9 -3.2 95 0.1 CALM 0 0 0 0 1030.3 - 0.0
24/01:00am -1.8 -4.1 -2.4 96 0.1 CALM 0 0 0 0 1030.3 - 0.0
24/12:49am -1.6 -4.3 -2.3 95 0.2 N 2 6 1 3 1030.3 - 0.0
24/12:47am -1.7 -4.4 -2.4 95 0.2 N 2 6 1 3 1030.3 - 0.0
24/12:30am -0.7 -4.0 -1.3 96 0.2 N 6 7 3 4 1030.4 - 0.0
24/12:00am -1.1 -3.3 -1.8 95 0.2 CALM 0 0 0 0 1030.3 1030.8 0.0
 
Date/Time
EST
Temp
°C
App
Temp
°C
Dew
Point
Rel
Hum
%
Delta-T
°C
Wind Press
QNH
hPa
Press
MSL
hPa
Rain
since 9 am
mm
Dir
 
Spd
km/h
Gust
km/h
Spd
kts
Gust
kts
23/11:30pm -1.3 -3.6 -2.7 90 0.4 CALM 0 6 0 3 1030.4 - 0.0
23/11:06pm 0.6 -2.5 0.0 96 0.2 ESE 6 7 3 4 1030.1 - 0.0
23/11:00pm 0.2 -3.0 -0.4 96 0.2 ESE 6 7 3 4 1030.1 - 0.0
23/10:48pm -0.2 -2.3 -0.9 95 0.2 CALM 0 0 0 0 1030.1 - 0.0
23/10:30pm 0.6 -1.4 -0.3 94 0.3 CALM 0 0 0 0 1030.3 - 0.0
23/10:00pm 0.9 -2.2 -0.1 93 0.4 N 6 7 3 4 1030.4 - 0.0
23/09:30pm 1.1 -1.0 -0.5 89 0.6 CALM 0 0 0 0 1030.5 - 0.0
23/09:00pm 1.8 -0.1 0.8 93 0.4 CALM 0 0 0 0 1030.4 1030.9 0.0
23/08:30pm 2.1 0.2 0.6 90 0.6 CALM 0 0 0 0 1030.1 - 0.0
23/08:00pm 3.0 1.2 1.4 89 0.6 CALM 0 0 0 0 1030.0 - 0.0
23/07:30pm 3.5 1.7 1.1 84 1.0 CALM 0 0 0 0 1029.8 - 0.0
23/07:00pm 4.2 1.7 1.6 83 1.1 E 4 7 2 4 1029.6 - 0.0
23/06:30pm 4.1 1.0 1.3 82 1.1 ENE 7 9 4 5 1029.4 - 0.0
23/06:00pm 6.0 3.0 2.3 77 1.6 ENE 7 9 4 5 1029.3 1029.8 0.0
23/05:30pm 7.4 4.5 1.3 65 2.6 N 6 7 3 4 1029.2 - 0.0
23/05:00pm 9.9 5.8 2.5 60 3.3 NNW 13 15 7 8 1028.9 - 0.0
23/04:30pm 12.4 8.0 2.6 51 4.4 NW 15 17 8 9 1028.7 - 0.0
23/04:00pm 14.0 9.9 2.0 44 5.4 WNW 13 17 7 9 1028.6 - 0.0
23/03:30pm 14.7 10.7 0.2 37 6.3 WNW 11 15 6 8 1028.5 - 0.0
23/03:00pm 14.7 11.0 -0.2 36 6.4 NW 9 13 5 7 1028.3 1028.8 0.0
23/02:30pm 14.8 11.1 -0.1 36 6.5 NNW 9 13 5 7 1028.3 - 0.0
23/02:00pm 14.6 11.5 1.2 40 6.0 WNW 7 9 4 5 1028.2 - 0.0
23/01:30pm 13.4 9.3 0.1 40 5.7 W 11 15 6 8 1028.5 - 0.0
23/01:00pm 13.1 10.4 2.4 48 4.8 WNW 6 9 3 5 1028.6 - 0.0
23/12:30pm 12.5 9.2 2.4 50 4.5 NNW 9 13 5 7 1028.9 - 0.0
23/12:00pm 11.8 8.8 1.7 50 4.4 NW 7 11 4 6 1029.4 1029.9 0.0
23/11:30am 10.9 7.8 1.2 51 4.2 SSW 7 11 4 6 1030.0 - 0.0
23/11:00am 10.0 7.8 3.1 62 3.1 WSW 4 9 2 5 1030.6 - 0.0
23/10:30am 9.2 6.3 2.8 64 2.8 NW 7 9 4 5 1030.9 - 0.0
23/10:00am 8.4 5.7 3.5 71 2.2 NW 7 9 4 5 1031.0 - 0.0
23/09:30am 6.7 3.8 2.6 75 1.8 SE 7 11 4 6 1030.9 - 0.0
23/09:00am 5.0 1.6 1.7 79 1.3 SSE 9 11 5 6 1030.9 1031.4 0.0
23/08:30am 3.4 0.0 1.8 89 0.7 SE 9 11 5 6 1030.7 - 0.0
23/08:00am -0.1 -3.0 -0.9 94 0.3 N 4 9 2 5 1030.6 - 0.0
23/07:30am -1.8 -5.3 -2.9 92 0.3 NNW 6 7 3 4 1030.7 - 0.0
23/07:00am -2.4 -6.0 -3.4 93 0.2 N 6 7 3 4 1030.3 - 0.0
23/06:30am -1.9 -4.3 -2.9 93 0.3 CALM 0 0 0 0 1029.8 - 0.0
23/06:00am -1.1 -3.7 -1.8 95 0.2 NNW 2 7 1 4 1029.6 1030.1 0.0
23/05:30am -1.5 -5.5 -2.2 95 0.2 SSE 9 11 5 6 1029.1 - 0.0
23/05:00am -1.5 -5.1 -2.1 96 0.1 SSE 7 11 4 6 1029.0 - 0.0
23/04:30am -0.8 -3.4 -1.4 96 0.2 E 2 6 1 3 1029.0 - 0.0
23/04:00am -1.3 -5.3 -2.6 91 0.4 NE 9 11 5 6 1028.9 - 0.0
23/03:30am 0.2 -3.6 -0.6 94 0.3 ENE 9 9 5 5 1029.0 - 0.0
23/03:00am 0.3 -3.5 -0.7 93 0.4 N 9 11 5 6 1029.2 1029.7 0.0
23/02:30am 0.3 -2.4 -2.4 82 1.0 N 2 11 1 6 1029.1 - 0.0
23/02:00am 2.7 -0.3 1.1 89 0.6 E 6 7 3 4 1029.1 - 0.0
23/01:30am 1.1 -2.3 -0.4 90 0.6 NW 7 11 4 6 1029.0 - 0.0
23/01:00am 0.4 -3.5 -1.7 86 0.8 NW 9 9 5 5 1028.8 - 0.0
23/12:30am 2.6 -0.4 1.1 90 0.6 NE 6 9 3 5 1028.5 - 0.0
23/12:00am 3.5 0.6 1.4 86 0.8 E 6 7 3 4 1028.5 1029.0 0.0
 
Date/Time
EST
Temp
°C
App
Temp
°C
Dew
Point
Rel
Hum
%
Delta-T
°C
Wind Press
QNH
hPa
Press
MSL
hPa
Rain
since 9 am
mm
Dir
 
Spd
km/h
Gust
km/h
Spd
kts
Gust
kts
22/11:30pm 2.8 0.5 0.4 84 0.9 E 2 9 1 5 1028.5 - 0.0
22/11:00pm 4.6 0.7 0.9 77 1.5 ESE 11 13 6 7 1028.2 - 0.0
22/10:30pm 6.7 1.8 1.8 71 2.1 S 17 22 9 12 1028.0 - 0.0
22/10:00pm 7.8 2.6 2.7 70 2.2 S 19 28 10 15 1027.9 - 0.0

Other Formats:

Comma delimited format used in spreadsheet applications
http://www.bom.gov.au/fwo/IDN60801/IDN60801.94926.axf

JavaScript Object Notation format (JSON) in row-major order
http://www.bom.gov.au/fwo/IDN60801/IDN60801.94926.json